User: anonymous   Login
Location: Cheching
(60.0667°N, 164.2167°W)
Time: 12:44:32
(UTC+00:00)
Language:

ESTCUBE 1 - Orbit

View from above orbital plane
View from above orbital plane
View from above satellite
View from above satellite

Ground track
Ground track

The orbit data is extracted from the following two-line orbital elements,

1 39161U 13021C   21016.12862334  .00000172  00000-0  34830-4 0  9998
2 39161  97.9530 100.7555 0008287 281.7237  78.3034 14.72411241413339
Epoch (UTC): 16 January 2021 03:05:13
Eccentricity: 0.0008287
inclination: 97.9530°
perigee height: 647 km
apogee height: 659 km
right ascension of ascending node: 100.7555°
argument of perigee: 281.7237°
revolutions per day: 14.72411241
mean anomaly at epoch: 78.3034°
orbit number at epoch: 41333

The dashed part of the orbit path shows where the satellite is in the earth's shadow,  

DLR